EC1ABR Weather Reports


time (UTC)temp
C
wind
direction
speed
KPH
gust
KPH
rain 1hr
cm
rain 24hr
cm
rain mn
cm
humidity
%
barometer
mb
20260508122012 14 0 0.0 0.0 0.00 0.00 0.00 76 1012.4
20260508120903 13 0 0.0 0.0 0.00 0.00 0.00 73 1012.5
20260508120003 13 0 0.0 0.0 0.00 0.00 0.00 73 1012.5
20260508115403 14 0 0.0 0.0 0.00 0.00 0.00 72 1012.7
20260508114716 14 0 0.0 0.0 0.00 0.00 0.00 71 1012.6
20260508113814 15 0 0.0 0.0 0.00 0.00 0.00 68 1012.7
20260508112916 15 0 0.0 0.0 0.00 0.00 0.00 65 1012.6
20260508111803 16 0 0.0 0.0 0.00 0.00 0.00 60 1012.7
20260508110903 16 0 0.0 0.0 0.00 0.00 0.00 61 1012.4
20260508110213 16 0 0.0 0.0 0.00 0.00 0.00 63 1012.5
20260508105615 16 0 0.0 0.0 0.00 0.00 0.00 63 1012.6
20260508104717 16 0 0.0 0.0 0.00 0.00 0.00 66 1012.5
20260508103814 15 0 0.0 0.0 0.00 0.00 0.00 69 1012.5
20260508102917 15 0 0.0 0.0 0.00 0.00 0.00 74 1012.4
20260508102014 15 0 0.0 0.0 0.00 0.00 0.00 78 1012.2
20260508100904 14 0 0.0 0.0 0.00 0.00 0.00 80 1012.5
20260508100004 14 0 0.0 0.0 0.00 0.00 0.00 83 1012.5
20260508095615 14 0 0.0 0.0 0.00 0.00 0.00 84 1012.5
20260508094503 13 0 0.0 0.0 0.00 0.00 0.00 86 1012.4
20260508093603 13 0 0.0 0.0 0.00 0.00 0.00 89 1012.2
20260508092703 13 0 0.0 0.0 0.00 0.00 0.00 90 1012.3
20260508091804 13 0 0.0 0.0 0.00 0.00 0.00 91 1012.3
20260508090903 12 0 0.0 0.0 0.00 0.00 0.00 93 1012.2
20260508090004 12 0 0.0 0.0 0.00 0.00 0.00 94 1012.4
20260508085403 12 0 0.0 0.0 0.00 0.00 0.00 97 1012.2
20260508084503 12 0 0.0 0.0 0.00 0.00 0.00 99 1012.0
20260508083816 12 0 0.0 0.0 0.00 0.00 0.00 99 1012.0
20260508082704 12 0 0.0 0.0 0.00 0.00 0.00 99 1012.1
20260508081811 11 0 0.0 0.0 0.00 0.00 0.00 99 1012.1
20260508080903 11 0 0.0 0.0 0.00 0.00 0.00 99 1012.3
20260508080004 11 0 0.0 0.0 0.00 0.00 0.00 99 1012.0
20260508075403 11 0 0.0 0.0 0.00 0.00 0.00 99 1011.9
20260508074503 11 0 0.0 0.0 0.00 0.00 0.00 99 1012.1
20260508073603 10 0 0.0 0.0 0.00 0.00 0.00 99 1012.3
20260508072703 10 0 0.0 0.0 0.00 0.00 0.00 99 1012.1
20260508072016 10 0 0.0 0.0 0.00 0.00 0.00 99 1012.4
20260508070903 10 0 0.0 0.0 0.00 0.00 0.00 99 1012.3
20260508070004 10 0 0.0 0.0 0.00 0.00 0.00 99 1012.2
20260508065403 10 0 0.0 0.0 0.00 0.00 0.00 98 1012.3
20260508064714 10 0 0.0 0.0 0.00 0.00 0.00 98 1011.9
20260508063603 9 0 0.0 0.0 0.00 0.00 0.00 98 1012.3
20260508062703 9 0 0.0 0.0 0.00 0.00 0.00 97 1012.4
20260508061803 9 0 0.0 0.0 0.00 0.00 0.00 97 1012.4
20260508060903 8 0 0.0 0.0 0.00 0.00 0.00 97 1012.5
20260508060004 8 0 0.0 0.0 0.00 0.00 0.00 96 1012.2
20260508055618 8 0 0.0 0.0 0.00 0.00 0.00 96 1012.2
20260508054504 8 0 0.0 0.0 0.00 0.00 0.00 96 1012.1
20260508053603 8 0 0.0 0.0 0.00 0.00 0.00 96 1011.9
20260508052703 8 0 0.0 0.0 0.00 0.00 0.00 95 1011.8
20260508051803 8 0 0.0 0.0 0.00 0.00 0.00 95 1011.8
20260508050903 8 0 0.0 0.0 0.00 0.00 0.00 95 1011.7
20260508050004 8 0 0.0 0.0 0.00 0.00 0.00 95 1011.6
20260508045403 8 0 0.0 0.0 0.00 0.00 0.00 95 1011.8
20260508044504 8 0 0.0 0.0 0.00 0.00 0.00 95 1011.9
20260508043603 8 0 0.0 0.0 0.00 0.00 0.00 94 1012.1
20260508042703 8 0 0.0 0.0 0.00 0.00 0.00 94 1012.4
20260508041803 8 0 0.0 0.0 0.00 0.00 0.00 94 1012.3
20260508040903 8 0 0.0 0.0 0.00 0.00 0.00 94 1012.2
20260508040004 8 0 0.0 0.0 0.00 0.00 0.00 94 1012.3
20260508035404 8 0 0.0 0.0 0.00 0.00 0.00 94 1012.6
20260508034503 8 0 0.0 0.0 0.00 0.00 0.00 94 1012.6
20260508033603 8 0 0.0 0.0 0.00 0.00 0.00 93 1012.5
20260508032703 8 0 0.0 0.0 0.00 0.00 0.00 93 1012.5
20260508031804 8 0 0.0 0.0 0.00 0.00 0.00 93 1012.6
20260508030903 8 0 0.0 0.0 0.00 0.00 0.00 93 1012.8
20260508030004 8 0 0.0 0.0 0.00 0.00 0.00 93 1012.6
20260508025403 8 0 0.0 0.0 0.00 0.00 0.00 93 1012.6
20260508024503 8 0 0.0 0.0 0.00 0.00 0.00 92 1012.7
20260508023603 8 0 0.0 0.0 0.00 0.00 0.00 92 1012.9
20260508022704 8 0 0.0 0.0 0.00 0.00 0.00 92 1012.8
20260508022014 8 0 0.0 0.0 0.00 0.00 0.00 92 1012.9
20260508020903 8 0 0.0 0.0 0.00 0.00 0.00 92 1012.8
20260508020004 8 0 0.0 0.0 0.00 0.00 0.00 92 1013.2
20260508015403 8 0 0.0 0.0 0.00 0.00 0.00 92 1013.2
20260508014504 8 0 0.0 0.0 0.00 0.00 0.00 92 1013.2
20260508013603 8 0 0.0 0.0 0.00 0.00 0.00 91 1013.4
20260508012704 8 0 0.0 0.0 0.00 0.00 0.00 91 1013.4
20260508012015 9 0 0.0 0.0 0.00 0.00 0.00 91 1013.5
20260508010903 9 0 0.0 0.0 0.00 0.00 0.00 91 1013.5
20260508010214 9 0 0.0 0.0 0.00 0.00 0.00 91 1013.7
20260508005403 9 0 0.0 0.0 0.00 0.00 0.00 91 1013.8
20260508004504 9 0 0.0 0.0 0.00 0.00 0.00 91 1013.8
20260508003603 9 0 0.0 0.0 0.00 0.00 0.00 91 1014.1
20260508002703 10 0 0.0 0.0 0.00 0.00 0.00 91 1014.3
20260508002015 10 0 0.0 0.0 0.00 0.00 0.00 90 1014.3
20260508000903 10 0 0.0 0.0 0.00 0.00 0.00 90 1014.4
20260508000004 10 0 0.0 0.0 0.00 0.00 0.00 90 1014.4
20260507235404 10 0 0.0 0.0 0.00 0.00 0.00 90 1014.4
20260507234504 10 0 0.0 0.0 0.00 0.00 0.00 89 1014.5
20260507233603 10 0 0.0 0.0 0.00 0.00 0.00 88 1014.6
20260507232703 10 0 0.0 0.0 0.00 0.00 0.00 87 1014.9
20260507232016 10 0 0.0 0.0 0.00 0.00 0.00 87 1014.7
20260507230904 11 0 0.0 0.0 0.00 0.00 0.00 86 1014.8
20260507230221 11 0 0.0 0.0 0.00 0.00 0.00 86 1014.9
20260507225403 11 0 0.0 0.0 0.00 0.00 0.00 86 1014.8
20260507224504 11 0 0.0 0.0 0.00 0.00 0.00 85 1014.9
20260507223603 11 0 0.0 0.0 0.00 0.00 0.00 85 1015.0
20260507222703 12 0 0.0 0.0 0.00 0.00 0.00 85 1015.2
20260507221804 12 0 0.0 0.0 0.00 0.00 0.00 84 1015.5
20260507220904 12 0 0.0 0.0 0.00 0.00 0.00 81 1015.6
20260507220004 12 0 0.0 0.0 0.00 0.00 0.00 81 1015.7
20260507215403 12 0 0.0 0.0 0.00 0.00 0.00 81 1015.9
20260507214503 12 0 0.0 0.0 0.00 0.00 0.00 80 1016.2
20260507213603 13 0 0.0 0.0 0.00 0.00 0.00 80 1016.2
20260507212704 13 0 0.0 0.0 0.00 0.00 0.00 81 1016.3
20260507212017 13 0 0.0 0.0 0.00 0.00 0.00 81 1016.1
20260507210903 13 0 0.0 0.0 0.00 0.00 0.00 81 1016.3
20260507210004 13 0 0.0 0.0 0.00 0.00 0.00 81 1016.4
20260507205403 13 0 0.0 0.0 0.00 0.00 0.00 81 1016.2
20260507204504 14 0 0.0 0.0 0.00 0.00 0.00 81 1016.2
20260507203604 14 0 0.0 0.0 0.00 0.00 0.00 81 1016.0
20260507202915 14 0 0.0 0.0 0.00 0.00 0.00 81 1015.6
20260507201804 14 0 0.0 0.0 0.00 0.00 0.00 81 1015.3
20260507201115 15 0 0.0 0.0 0.00 0.00 0.00 80 1015.1
20260507200003 15 0 0.0 0.0 0.00 0.00 0.00 79 1015.0
20260507195403 15 0 0.0 0.0 0.00 0.00 0.00 78 1014.8
20260507194504 15 0 0.0 0.0 0.00 0.00 0.00 78 1014.6
20260507193603 15 0 0.0 0.0 0.00 0.00 0.00 76 1014.7
20260507192916 15 0 0.0 0.0 0.00 0.00 0.00 76 1014.6
20260507192013 16 0 0.0 0.0 0.00 0.00 0.00 75 1014.5
20260507190903 16 0 0.0 0.0 0.00 0.00 0.00 73 1014.6
20260507190213 16 0 0.0 0.0 0.00 0.00 0.00 73 1014.4
20260507185614 16 0 0.0 0.0 0.00 0.00 0.00 73 1014.5
20260507184504 16 0 0.0 0.0 0.00 0.00 0.00 73 1014.6
20260507183603 16 0 0.0 0.0 0.00 0.00 0.00 72 1014.3
20260507182703 16 0 0.0 0.0 0.00 0.00 0.00 72 1014.5
20260507182014 16 0 0.0 0.0 0.00 0.00 0.00 72 1014.5
20260507180903 17 0 0.0 0.0 0.00 0.00 0.00 71 1014.4
20260507180004 17 0 0.0 0.0 0.00 0.00 0.00 71 1014.5
20260507175615 17 0 0.0 0.0 0.00 0.00 0.00 71 1014.3
20260507174503 17 0 0.0 0.0 0.00 0.00 0.00 68 1014.4
20260507173815 17 0 0.0 0.0 0.00 0.00 0.00 68 1014.2
20260507172703 17 0 0.0 0.0 0.00 0.00 0.00 67 1014.1
20260507171803 17 0 0.0 0.0 0.00 0.00 0.00 67 1013.8
20260507170903 17 0 0.0 0.0 0.00 0.00 0.00 66 1013.6
20260507170214 17 0 0.0 0.0 0.00 0.00 0.00 66 1013.7
20260507165404 17 0 0.0 0.0 0.00 0.00 0.00 65 1013.6
20260507164503 17 0 0.0 0.0 0.00 0.00 0.00 64 1013.4
20260507163603 18 0 0.0 0.0 0.00 0.00 0.00 64 1013.3
20260507162703 18 0 0.0 0.0 0.00 0.00 0.00 62 1013.1
20260507161804 18 0 0.0 0.0 0.00 0.00 0.00 62 1012.9
20260507160903 18 0 0.0 0.0 0.00 0.00 0.00 62 1012.7
20260507160004 18 0 0.0 0.0 0.00 0.00 0.00 61 1012.6
20260507155616 18 0 0.0 0.0 0.00 0.00 0.00 61 1012.8
20260507154503 19 0 0.0 0.0 0.00 0.00 0.00 60 1012.7
20260507153603 19 0 0.0 0.0 0.00 0.00 0.00 59 1012.6
20260507152704 19 0 0.0 0.0 0.00 0.00 0.00 57 1012.6
20260507151803 20 0 0.0 0.0 0.00 0.00 0.00 57 1012.7
20260507150903 20 0 0.0 0.0 0.00 0.00 0.00 56 1012.7
20260507150216 20 0 0.0 0.0 0.00 0.00 0.00 54 1012.8
20260507145403 20 0 0.0 0.0 0.00 0.00 0.00 53 1012.5
20260507144504 20 0 0.0 0.0 0.00 0.00 0.00 54 1012.7
20260507143604 19 0 0.0 0.0 0.00 0.00 0.00 54 1013.0
20260507143504 19 0 0.0 0.0 0.00 0.00 0.00 55 1013.2
20260507142703 19 0 0.0 0.0 0.00 0.00 0.00 55 1005.9
20260507141803 19 0 0.0 0.0 0.00 0.00 0.00 55 1005.8
20260507140904 19 0 0.0 0.0 0.00 0.00 0.00 55 1005.9
20260507140004 19 0 0.0 0.0 0.00 0.00 0.00 57 1005.9
20260507135616 19 0 0.0 0.0 0.00 0.00 0.00 57 1005.9
20260507134503 19 0 0.0 0.0 0.00 0.00 0.00 58 1005.8
20260507133603 19 0 0.0 0.0 0.00 0.00 0.00 58 1005.9
20260507132703 19 0 0.0 0.0 0.00 0.00 0.00 58 1006.2
20260507131804 18 0 0.0 0.0 0.00 0.00 0.00 57 1006.2
20260507130903 18 0 0.0 0.0 0.00 0.00 0.00 57 1006.5
20260507130004 18 0 0.0 0.0 0.00 0.00 0.00 59 1006.6
20260507125617 18 0 0.0 0.0 0.00 0.00 0.00 58 1006.3
20260507124714 18 0 0.0 0.0 0.00 0.00 0.00 59 1006.4
20260507123603 18 0 0.0 0.0 0.00 0.00 0.00 55 1006.4
20260507122705 19 0 0.0 0.0 0.00 0.00 0.00 53 1006.6